Regional Weather Roundup
Issued by NWS Green Bay, WI

Home | Current Version | Previous Version | Text Only | Print | Product List | Glossary On
Versions: 1 2 3 4 5 6 7 8 9 10 11 12 13 14 15 16 17 18 19 20 21 22 23 24 25 26 27 28 29 30 31 32 33 34 35 36 37 38 39 40 41 42 43 44 45 46 47 48 49 50
000
ASUS43 KGRB 281011
RWRGRB

NORTH-CENTRAL AND NORTHEAST WISCONSIN REGIONAL WEATHER ROUNDUP
NATIONAL WEATHER SERVICE GREEN BAY WI
500 AM CDT WED JUN 28 2017

WIZ005-009-010>012-018-019-281100-
NORTH CENTRAL WISCONSIN

CITY           SKY/WX    TMP DP  RH WIND       PRES   REMARKS
IRONWOOD       CLOUDY    58  46  64 S8        29.81R
MANITOWISH WTR CLEAR     56  47  70 S8        29.84F
ARBOR VITAE    CLEAR     57  47  69 S7        29.85F
EAGLE RIVER    CLEAR     52  45  77 CALM      29.88R
LAND O LAKES   CLEAR     53  47  80 S3        29.90R
RHINELANDER    CLEAR     57  46  66 S7        29.88R
PHILLIPS       CLOUDY    56  47  72 S10G16    29.82F
ANTIGO         CLEAR     50  46  87 S7        29.90F
TOMAHAWK       NOT AVBL
MERRILL        CLOUDY    48  47  95 CALM      29.88S
$$

WIZ013-073-281100-
NORTHEAST WISCONSIN

CITY           SKY/WX    TMP DP  RH WIND       PRES   REMARKS
IRON MOUNTAIN  CLEAR     51  46  83 S5        29.90R
MARINETTE      CLEAR     58  54  86 SW7       29.93R
OCONTO         CLEAR     56  50  80 S3        29.92R
$$

WIZ017-030-035>037-045-281100-
CENTRAL WISCONSIN

CITY           SKY/WX    TMP DP  RH WIND       PRES   REMARKS
MEDFORD        MOCLDY    55  47  75 SE10      29.84F
WAUSAU           N/A    N/A N/A N/A MISG      29.87S
MOSINEE        CLOUDY    54  48  82 S12       29.89S
MARSHFIELD     MOCLDY    56  48  74 S8        29.85F
WISC RAPIDS    CLOUDY    58  48  69 SE6       29.88F
STEVENS POINT  CLOUDY    56  46  68 S8        29.89F
WAUPACA        CLOUDY    51  50  95 CALM      29.92S
SHAWANO        CLEAR     55  48  76 CALM      29.91F
CLINTONVILLE   CLEAR     52  46  82 S5        29.91S
WAUTOMA        CLOUDY    48  46  93 CALM      29.91F
$$

WIZ038-039-048-051-281100-
FOX VALLEY

CITY           SKY/WX    TMP DP  RH WIND       PRES   REMARKS
NWS GREEN BAY  CLEAR     56  51  84 S6        29.92R
APPLETON       CLEAR     57  45  62 S10       29.91S
OSHKOSH        PTCLDY    53  48  83 S8        29.93S
FOND DU LAC    CLEAR     57  46  66 S7        29.94R
$$

WIZ022-050-052-281100-
EAST CENTRAL WISCONSIN

CITY           SKY/WX    TMP DP  RH WIND       PRES   REMARKS
EPHRAIM        FAIR      55  48  76 S3        29.91R
WASHINGTON ISL CLOUDY    57  49  75 S3        29.90S
STURGEON BAY     N/A     57  49  74 S10       29.94
MANITOWOC      CLEAR     58  47  66 S8        29.95R
SHEBOYGAN      CLEAR     51  50  96 CALM      29.95S
$$

LMZ563-521-522-541>543-281100-
LAKESHORE

STATION/POSITION TIME  TEMP    WIND        PRES    VSBY  WAVE
                       AIR SEA DIR/SP/G                  HT/PER
                 (UTC) (F)     (DEG/KT/KT) (MB)    (MI)  (FT/S)
SHEBOYGAN LKSHOR 1000   56     180/  8/ 10 1014.1S
KEWAUNEE LKSHORE 0948   54     190/  4/  6 1013.6R
ALGOMA MARINA    1003   54     210/  8/  9   N/A
NORTHPORT PIER   0940   57     160/  3/  5 1012.5S
N MID LAKE BUOY  0950   58 57  190/ 12/ 12 1013.5F         3/ 5
S GREEN BAY BUOY 1000   65     200/ 16/ 19 1012.9
SISTER BAY LKSHO 0923   59     150/ 10/ 12   N/A
CHAMBERS ISLAND  0940   62     170/  4/  8 1012.2S
MENOMINEE LKSHOR 0948          200/  9/ 12 1012.1R
$$




USA.gov is the U.S. government's official web portal to all federal, state and local government web resources and services.